Flag for Germany Weather past 2 weeks in Dachau, Bavaria, Germany

Now
57 °F

Light rain. Fog.


Feels Like: 57 °F
Forecast: 52 / 65 °F
Wind: 5 mph from Northwest

Location: Oberpfaffenhofen

Current Time: Oct 1, 2014 at 10:29:26 AM

Latest Report: Oct 1, 2014 at 9:50 AM


Visibility: 3 mi

Pressure: 30.30 "Hg

Humidity: 100%

Dew point: 57 °F

Location of DachauLocation

Historic Weather in Dachau — Graph

°F

Dachau temperature yesterday

Maximum temperature yesterday: 66 °F (at 2:20 PM)
Minimum temperature yesterday: 54 °F (at 6:50 AM)
Average temperature yesterday: 60 °F

Past Weeks' High & Low Weather Summary

 TemperatureHumidityPressure
High75 °F (Sep 18, 2:50 PM)100% (Sep 16, 9:20 AM)30.39 "Hg (Sep 16, 9:20 AM)
Low36 °F (Sep 24, 7:50 AM)47% (Sep 18, 2:50 PM)29.89 "Hg (Sep 24, 3:50 PM)
Average58 °F78%30.11 "Hg
* Reported Sep 16 9:20 AM — Oct 1 9:20 AM, Dachau, Weather by CustomWeather, © 2014

Note: Actual official high and low records may vary slightly from our data, if they occured in-between our weather recording intervals... More about our weather records

Advertising

Dachau weather history for previous 24 hours

 ConditionsComfort  
Time TempWeatherWind HumidityBarometerVisibility
9:20 AM
Oct 1
57 °FLight rain. Mostly cloudy.3 mph94%30.30 "Hg4 mi
8:50 AM57 °FLight rain. More clouds than sun.3 mph94%30.30 "Hg4 mi
8:20 AM57 °FRain. Fog.6 mph94%30.30 "Hg3 mi
7:50 AM57 °FRain. Fog.5 mph94%30.30 "Hg2 mi
7:20 AM57 °FLight rain. Fog.5 mph94%30.30 "Hg2 mi
6:50 AM57 °FLight rain. Fog.5 mph94%30.30 "Hg2 mi
7:50 PM
Sep 30
57 °FLight rain. Broken clouds.1 mph94%30.33 "Hg4 mi
7:20 PM59 °FLight rain. Broken clouds.No wind88%30.30 "Hg4 mi
6:50 PM59 °FLight rain. Broken clouds.1 mph88%30.30 "Hg5 mi
6:20 PM61 °FLight rain. Partly sunny.3 mph88%30.30 "HgN/A
5:50 PM61 °FLight rain. Partly sunny.5 mph83%30.30 "HgN/A
5:20 PM63 °FSunny.2 mph73%30.30 "Hg10 mi
4:50 PM63 °FSunny.5 mph73%30.30 "Hg10 mi
4:20 PM64 °FSunny.5 mph73%30.30 "Hg10 mi
3:50 PM64 °FPartly sunny.6 mph68%30.30 "HgN/A
3:20 PM64 °FPartly sunny.5 mph73%30.33 "HgN/A
2:50 PM64 °FSunny.6 mph73%30.30 "Hg10 mi
2:20 PM66 °FSunny.2 mph68%30.33 "Hg10 mi
1:50 PM64 °FSunny.3 mph73%30.33 "Hg10 mi
1:20 PM64 °FSunny.3 mph73%30.33 "Hg10 mi
12:50 PM63 °FSunny.3 mph77%30.33 "Hg10 mi
12:20 PM61 °FSunny.3 mph83%30.33 "Hg10 mi
11:50 AM59 °FSunny.5 mph88%30.33 "Hg10 mi
11:20 AM59 °FSunny.5 mph88%30.33 "Hg10 mi
10:50 AM59 °FPartly sunny.6 mph88%30.33 "HgN/A
10:20 AM57 °FSunny.2 mph94%30.33 "Hg10 mi
Weather by CustomWeather, © 2014

See weather overviewHow to use our weather pages